User: anonymous   Login
Location: Unspecified
(0.0000°N, 0.0000°E)
Time: 01:03:03
(UTC+00:00)
Language:

TBA - TO BE ASSIGNED - Orbit

View from above orbital plane
View from above orbital plane
View from above satellite
View from above satellite

Ground track
Ground track

The orbit is defined by the following mean orbital elements,

1 68210U          26145.21961664 +.00000000 +00000-0 +43513-3 0 00002
2 68210  97.2858  20.6246 0001421  92.6530 267.4875 15.33454412    02
Epoch (UTC): 25 May 2026 05:16:14
Eccentricity: 0.0001421
inclination: 97.2858°
perigee height: 465 km
apogee height: 466 km
right ascension of ascending node: 20.6246°
argument of perigee: 92.6530°
revolutions per day: 15.33454412
mean anomaly at epoch: 267.4875°

The dashed part of the orbit path shows where the satellite is in the earth's shadow,  

DLR